Time,TemperatureF,DewpointF,PressureIn,WindDirection,WindDirectionDegrees,WindSpeedMPH,WindSpeedGustMPH,Humidity,HourlyPrecipIn,Conditions,Clouds,dailyrainin,SolarRadiationWatts/m^2,SoftwareType,DateUTC
2013-06-16 00:01:00,67.8,56.5,30.01,ENE,71,0.0,4.0,67,0.00,,,0.00,0.0,meteohub,2013-06-16 04:01:00,
2013-06-16 00:02:00,67.8,56.1,30.01,East,90,0.0,4.0,66,0.00,,,0.00,0.0,meteohub,2013-06-16 04:02:00,
2013-06-16 00:07:00,67.6,55.9,30.01,East,90,0.0,4.0,66,0.00,,,0.00,0.0,meteohub,2013-06-16 04:07:00,
2013-06-16 00:10:00,67.6,55.9,30.01,East,90,0.0,4.0,66,0.00,,,0.00,0.0,meteohub,2013-06-16 04:10:00,
2013-06-16 00:13:00,67.6,55.9,30.01,SW,234,1.0,2.0,66,0.00,,,0.00,0.0,meteohub,2013-06-16 04:13:00,
2013-06-16 00:19:00,67.8,56.1,30.01,East,94,0.0,4.0,66,0.00,,,0.00,0.0,meteohub,2013-06-16 04:19:00,
2013-06-16 00:25:00,67.8,56.1,30.01,SE,140,0.0,4.0,66,0.00,,,0.00,0.0,meteohub,2013-06-16 04:25:00,
2013-06-16 00:31:00,67.8,55.6,30.01,North,11,1.0,3.0,65,0.00,,,0.00,0.0,meteohub,2013-06-16 04:31:00,
2013-06-16 00:37:00,67.8,55.6,30.01,East,101,0.0,3.0,65,0.00,,,0.00,0.0,meteohub,2013-06-16 04:37:00,
2013-06-16 00:42:00,67.8,55.6,30.01,East,99,0.0,3.0,65,0.00,,,0.00,0.0,meteohub,2013-06-16 04:42:00,
2013-06-16 00:47:00,67.8,56.1,30.01,ENE,74,0.0,2.0,66,0.00,,,0.00,0.0,meteohub,2013-06-16 04:47:00,
2013-06-16 00:52:00,67.8,56.5,30.01,SW,225,0.0,2.0,67,0.00,,,0.00,0.0,meteohub,2013-06-16 04:52:00,
2013-06-16 00:57:00,67.6,56.7,30.01,NE,43,1.0,2.0,68,0.00,,,0.00,0.0,meteohub,2013-06-16 04:57:00,
2013-06-16 01:02:00,67.6,57.0,30.01,ENE,63,0.0,2.0,69,0.00,,,0.00,0.0,meteohub,2013-06-16 05:02:00,
2013-06-16 01:07:00,67.6,57.0,30.01,East,82,0.0,2.0,69,0.00,,,0.00,0.0,meteohub,2013-06-16 05:07:00,
2013-06-16 01:12:00,67.5,57.4,30.01,East,82,0.0,1.0,70,0.00,,,0.00,0.0,meteohub,2013-06-16 05:12:00,
2013-06-16 01:17:00,67.3,57.2,30.01,East,100,1.0,1.0,70,0.00,,,0.00,0.0,meteohub,2013-06-16 05:17:00,
2013-06-16 01:22:00,67.3,57.2,30.01,East,92,0.0,1.0,70,0.00,,,0.00,0.0,meteohub,2013-06-16 05:22:00,
2013-06-16 01:27:00,67.3,57.2,30.01,East,92,0.0,3.0,70,0.00,,,0.00,0.0,meteohub,2013-06-16 05:27:00,
2013-06-16 01:32:00,67.3,57.2,30.01,NNW,336,0.0,3.0,70,0.00,,,0.00,0.0,meteohub,2013-06-16 05:32:00,
2013-06-16 01:37:00,67.3,56.8,30.01,East,96,0.0,2.0,69,0.00,,,0.00,0.0,meteohub,2013-06-16 05:37:00,
2013-06-16 01:42:00,67.3,57.2,30.01,ESE,105,0.0,2.0,70,0.00,,,0.00,0.0,meteohub,2013-06-16 05:42:00,
2013-06-16 01:47:00,67.1,56.7,30.01,East,88,0.0,2.0,69,0.00,,,0.00,0.0,meteohub,2013-06-16 05:47:00,
2013-06-16 01:52:00,67.1,57.0,30.01,East,88,0.0,2.0,70,0.00,,,0.00,0.0,meteohub,2013-06-16 05:52:00,
2013-06-16 01:57:00,67.1,56.7,30.00,ESE,104,0.0,2.0,69,0.00,,,0.00,0.0,meteohub,2013-06-16 05:57:00,
2013-06-16 02:02:00,67.1,56.7,30.00,North,0,0.0,3.0,69,0.00,,,0.00,0.0,meteohub,2013-06-16 06:02:00,
2013-06-16 02:07:00,67.1,56.7,30.00,East,84,1.0,3.0,69,0.00,,,0.00,0.0,meteohub,2013-06-16 06:07:00,
2013-06-16 02:12:00,67.3,56.3,30.00,NE,51,0.0,3.0,68,0.00,,,0.00,0.0,meteohub,2013-06-16 06:12:00,
2013-06-16 02:17:00,67.3,56.3,30.00,North,355,0.0,4.0,68,0.00,,,0.00,0.0,meteohub,2013-06-16 06:17:00,
2013-06-16 02:22:00,67.3,56.3,30.00,NNE,15,0.0,4.0,68,0.00,,,0.00,0.0,meteohub,2013-06-16 06:22:00,
2013-06-16 02:27:00,67.3,56.3,30.00,South,187,0.0,3.0,68,0.00,,,0.00,0.0,meteohub,2013-06-16 06:27:00,
2013-06-16 02:32:00,67.3,56.3,29.99,SSE,153,0.0,3.0,68,0.00,,,0.00,0.0,meteohub,2013-06-16 06:32:00,
2013-06-16 02:37:00,67.1,55.8,29.99,East,92,0.0,1.0,67,0.00,,,0.00,0.0,meteohub,2013-06-16 06:37:00,
2013-06-16 02:42:00,67.3,55.9,29.99,ESE,117,0.0,2.0,67,0.00,,,0.00,0.0,meteohub,2013-06-16 06:42:00,
2013-06-16 02:47:00,67.3,55.9,29.99,East,89,0.0,2.0,67,0.00,,,0.00,0.0,meteohub,2013-06-16 06:47:00,
2013-06-16 02:52:00,67.3,55.9,29.99,ENE,71,1.0,2.0,67,0.00,,,0.00,0.0,meteohub,2013-06-16 06:52:00,
2013-06-16 02:57:00,67.3,55.9,29.99,West,261,0.0,2.0,67,0.00,,,0.00,0.0,meteohub,2013-06-16 06:57:00,
2013-06-16 03:02:00,67.3,55.9,29.99,ENE,76,0.0,2.0,67,0.00,,,0.00,0.0,meteohub,2013-06-16 07:02:00,
2013-06-16 03:07:00,67.1,56.1,29.99,East,88,0.0,2.0,68,0.00,,,0.00,0.0,meteohub,2013-06-16 07:07:00,
2013-06-16 03:12:00,66.9,55.9,29.98,North,349,0.0,9.0,68,0.00,,,0.00,0.0,meteohub,2013-06-16 07:12:00,
2013-06-16 03:17:00,66.9,55.9,29.99,East,90,0.0,9.0,68,0.00,,,0.00,0.0,meteohub,2013-06-16 07:17:00,
2013-06-16 03:22:00,66.7,55.8,29.98,ESE,111,0.0,2.0,68,0.00,,,0.00,0.0,meteohub,2013-06-16 07:22:00,
2013-06-16 03:27:00,66.7,56.3,29.98,South,185,0.0,2.0,69,0.00,,,0.00,0.0,meteohub,2013-06-16 07:27:00,
2013-06-16 03:32:00,66.6,55.6,29.98,NE,40,0.0,2.0,68,0.00,,,0.00,0.0,meteohub,2013-06-16 07:32:00,
2013-06-16 03:37:00,66.6,55.6,29.98,NE,40,1.0,2.0,68,0.00,,,0.00,0.0,meteohub,2013-06-16 07:37:00,
2013-06-16 03:42:00,66.6,55.2,29.98,North,350,0.0,2.0,67,0.00,,,0.00,0.0,meteohub,2013-06-16 07:42:00,
2013-06-16 03:47:00,66.6,55.6,29.98,ENE,74,0.0,3.0,68,0.00,,,0.00,0.0,meteohub,2013-06-16 07:47:00,
2013-06-16 03:52:00,66.6,55.6,29.98,ENE,76,0.0,3.0,68,0.00,,,0.00,0.0,meteohub,2013-06-16 07:52:00,
2013-06-16 03:57:00,66.6,55.6,29.99,North,5,0.0,3.0,68,0.00,,,0.00,0.0,meteohub,2013-06-16 07:57:00,
2013-06-16 04:02:00,66.4,55.6,29.99,ENE,77,0.0,2.0,68,0.00,,,0.00,0.0,meteohub,2013-06-16 08:02:00,
2013-06-16 04:07:00,66.4,55.6,29.99,SSE,165,0.0,2.0,68,0.00,,,0.00,0.0,meteohub,2013-06-16 08:07:00,
2013-06-16 04:12:00,66.4,55.9,29.99,NE,36,0.0,2.0,69,0.00,,,0.00,0.0,meteohub,2013-06-16 08:12:00,
2013-06-16 04:17:00,66.2,55.8,29.99,ESE,123,0.0,2.0,69,0.00,,,0.00,0.0,meteohub,2013-06-16 08:17:00,
2013-06-16 04:22:00,66.0,55.6,29.99,East,84,0.0,2.0,69,0.00,,,0.00,0.0,meteohub,2013-06-16 08:22:00,
2013-06-16 04:27:00,66.0,55.6,29.99,WSW,238,0.0,2.0,69,0.00,,,0.00,0.0,meteohub,2013-06-16 08:27:00,
2013-06-16 04:32:00,66.0,55.9,29.99,NE,55,1.0,1.0,70,0.00,,,0.00,0.0,meteohub,2013-06-16 08:32:00,
2013-06-16 04:37:00,66.0,55.9,30.00,East,92,0.0,1.0,70,0.00,,,0.00,0.0,meteohub,2013-06-16 08:37:00,
2013-06-16 04:42:00,65.8,56.1,30.00,East,81,0.0,1.0,71,0.00,,,0.00,0.0,meteohub,2013-06-16 08:42:00,
2013-06-16 04:47:00,65.7,56.3,30.00,NNE,26,0.0,1.0,72,0.00,,,0.00,0.0,meteohub,2013-06-16 08:47:00,
2013-06-16 04:52:00,65.7,56.3,30.00,NNE,26,0.0,4.0,72,0.00,,,0.00,0.0,meteohub,2013-06-16 08:52:00,
2013-06-16 04:57:00,65.3,56.5,30.00,NNE,26,0.0,4.0,73,0.00,,,0.00,0.0,meteohub,2013-06-16 08:57:00,
2013-06-16 05:02:00,65.1,56.7,30.00,NNE,32,0.0,1.0,74,0.00,,,0.00,0.0,meteohub,2013-06-16 09:02:00,
2013-06-16 05:07:00,64.8,56.7,30.00,NNE,32,0.0,1.0,75,0.00,,,0.00,0.0,meteohub,2013-06-16 09:07:00,
2013-06-16 05:12:00,64.6,56.8,30.00,NNE,32,0.0,1.0,76,0.00,,,0.00,0.0,meteohub,2013-06-16 09:12:00,
2013-06-16 05:17:00,64.4,57.0,30.00,NNE,32,0.0,1.0,77,0.00,,,0.00,0.0,meteohub,2013-06-16 09:17:00,
2013-06-16 05:22:00,64.2,56.8,30.00,ESE,113,0.0,1.0,77,0.00,,,0.00,0.0,meteohub,2013-06-16 09:22:00,
2013-06-16 05:27:00,64.2,56.8,30.00,East,92,0.0,1.0,77,0.00,,,0.00,0.0,meteohub,2013-06-16 09:27:00,
2013-06-16 05:32:00,64.2,56.8,30.00,East,101,0.0,1.0,77,0.00,,,0.00,0.0,meteohub,2013-06-16 09:32:00,
2013-06-16 05:37:00,64.2,57.2,30.00,East,94,0.0,1.0,78,0.00,,,0.00,0.0,meteohub,2013-06-16 09:37:00,
2013-06-16 05:42:00,64.2,56.8,30.00,SSE,147,1.0,1.0,77,0.00,,,0.00,0.0,meteohub,2013-06-16 09:42:00,
2013-06-16 05:47:00,64.2,56.8,30.01,East,94,0.0,2.0,77,0.00,,,0.00,0.0,meteohub,2013-06-16 09:47:00,
2013-06-16 05:52:00,64.2,56.8,30.00,East,88,0.0,2.0,77,0.00,,,0.00,0.0,meteohub,2013-06-16 09:52:00,
2013-06-16 05:57:00,64.2,57.2,30.01,ESE,107,0.0,2.0,78,0.00,,,0.00,0.0,meteohub,2013-06-16 09:57:00,
2013-06-16 06:02:00,64.2,56.8,30.01,ESE,117,0.0,2.0,77,0.00,,,0.00,0.0,meteohub,2013-06-16 10:02:00,
2013-06-16 06:07:00,64.2,57.2,30.01,ESE,102,0.0,4.0,78,0.00,,,0.00,0.0,meteohub,2013-06-16 10:07:00,
2013-06-16 06:12:00,64.2,57.2,30.02,ENE,71,0.0,4.0,78,0.00,,,0.00,0.0,meteohub,2013-06-16 10:12:00,
2013-06-16 06:17:00,64.2,57.6,30.02,ENE,71,0.0,4.0,79,0.00,,,0.00,0.0,meteohub,2013-06-16 10:17:00,
2013-06-16 06:22:00,64.2,57.6,30.02,East,84,0.0,4.0,79,0.00,,,0.00,0.0,meteohub,2013-06-16 10:22:00,
2013-06-16 06:27:00,64.0,57.4,30.02,ENE,65,0.0,2.0,79,0.00,,,0.00,5.0,meteohub,2013-06-16 10:27:00,
2013-06-16 06:32:00,64.0,57.7,30.02,ENE,67,0.0,2.0,80,0.00,,,0.00,9.0,meteohub,2013-06-16 10:32:00,
2013-06-16 06:37:00,64.0,57.7,30.02,ENE,59,0.0,2.0,80,0.00,,,0.00,12.0,meteohub,2013-06-16 10:37:00,
2013-06-16 06:42:00,63.9,57.6,30.02,NNE,15,1.0,2.0,80,0.00,,,0.00,14.0,meteohub,2013-06-16 10:42:00,
2013-06-16 06:47:00,63.9,57.6,30.03,ENE,69,0.0,2.0,80,0.00,,,0.00,16.0,meteohub,2013-06-16 10:47:00,
2013-06-16 06:52:00,63.9,57.9,30.03,NE,56,1.0,5.0,81,0.00,,,0.00,21.0,meteohub,2013-06-16 10:52:00,
2013-06-16 06:57:00,63.9,57.9,30.03,ENE,61,0.0,5.0,81,0.00,,,0.00,30.0,meteohub,2013-06-16 10:57:00,
2013-06-16 07:02:00,63.9,57.9,30.02,ENE,61,0.0,2.0,81,0.00,,,0.00,58.0,meteohub,2013-06-16 11:02:00,
2013-06-16 07:07:00,64.2,58.6,30.03,NE,39,1.0,3.0,82,0.00,,,0.00,74.0,meteohub,2013-06-16 11:07:00,
2013-06-16 07:12:00,64.6,58.6,30.03,NE,46,0.0,5.0,81,0.00,,,0.00,91.0,meteohub,2013-06-16 11:12:00,
2013-06-16 07:17:00,64.9,59.0,30.02,ENE,76,0.0,5.0,81,0.00,,,0.00,105.0,meteohub,2013-06-16 11:17:00,
2013-06-16 07:22:00,65.1,58.8,30.02,NE,37,0.0,5.0,80,0.00,,,0.00,125.0,meteohub,2013-06-16 11:22:00,
2013-06-16 07:27:00,65.5,59.2,30.02,North,5,2.0,4.0,80,0.00,,,0.00,141.0,meteohub,2013-06-16 11:27:00,
2013-06-16 07:32:00,65.8,59.2,30.02,ENE,74,1.0,4.0,79,0.00,,,0.00,156.0,meteohub,2013-06-16 11:32:00,
2013-06-16 07:37:00,66.0,59.0,30.02,ENE,73,0.0,4.0,78,0.00,,,0.00,171.0,meteohub,2013-06-16 11:37:00,
2013-06-16 07:42:00,66.4,59.0,30.03,ENE,75,0.0,4.0,77,0.00,,,0.00,183.0,meteohub,2013-06-16 11:42:00,
2013-06-16 07:47:00,66.6,59.2,30.03,SSW,198,0.0,3.0,77,0.00,,,0.00,199.0,meteohub,2013-06-16 11:47:00,
2013-06-16 07:52:00,66.9,59.2,30.04,South,188,1.0,3.0,76,0.00,,,0.00,211.0,meteohub,2013-06-16 11:52:00,
2013-06-16 07:57:00,67.3,59.5,30.03,SW,215,0.0,4.0,76,0.00,,,0.00,229.0,meteohub,2013-06-16 11:57:00,
2013-06-16 08:02:00,67.8,59.5,30.04,ENE,74,0.0,4.0,75,0.00,,,0.00,246.0,meteohub,2013-06-16 12:02:00,
2013-06-16 08:07:00,68.2,58.8,30.04,ENE,77,0.0,4.0,72,0.00,,,0.00,260.0,meteohub,2013-06-16 12:07:00,
2013-06-16 08:12:00,68.4,59.4,30.04,NNE,15,1.0,2.0,73,0.00,,,0.00,279.0,meteohub,2013-06-16 12:12:00,
2013-06-16 08:17:00,68.9,59.5,30.04,NNE,30,0.0,2.0,72,0.00,,,0.00,295.0,meteohub,2013-06-16 12:17:00,
2013-06-16 08:22:00,69.3,59.5,30.04,NE,38,0.0,2.0,71,0.00,,,0.00,316.0,meteohub,2013-06-16 12:22:00,
2013-06-16 08:27:00,69.8,59.2,30.04,NE,46,0.0,2.0,69,0.00,,,0.00,327.0,meteohub,2013-06-16 12:27:00,
2013-06-16 08:32:00,70.2,59.5,30.04,NE,43,0.0,2.0,69,0.00,,,0.00,325.0,meteohub,2013-06-16 12:32:00,
2013-06-16 08:37:00,70.3,59.4,30.04,NNE,22,3.0,3.0,68,0.00,,,0.00,362.0,meteohub,2013-06-16 12:37:00,
2013-06-16 08:42:00,70.5,59.4,30.04,NE,55,0.0,4.0,68,0.00,,,0.00,376.0,meteohub,2013-06-16 12:42:00,
2013-06-16 08:47:00,70.5,59.4,30.04,ENE,61,0.0,4.0,68,0.00,,,0.00,383.0,meteohub,2013-06-16 12:47:00,
2013-06-16 08:52:00,70.9,59.7,30.04,East,92,0.0,4.0,68,0.00,,,0.00,279.0,meteohub,2013-06-16 12:52:00,
2013-06-16 08:57:00,71.1,59.5,30.04,ESE,113,0.0,3.0,67,0.00,,,0.00,90.0,meteohub,2013-06-16 12:57:00,
2013-06-16 09:02:00,71.1,59.9,30.04,SSE,167,2.0,4.0,68,0.00,,,0.00,91.0,meteohub,2013-06-16 13:02:00,
2013-06-16 09:07:00,71.2,60.1,30.04,NNE,19,0.0,4.0,68,0.00,,,0.00,93.0,meteohub,2013-06-16 13:07:00,
2013-06-16 09:12:00,71.4,59.9,30.04,ENE,73,0.0,2.0,67,0.00,,,0.00,97.0,meteohub,2013-06-16 13:12:00,
2013-06-16 09:17:00,71.4,59.5,30.04,East,82,0.0,3.0,66,0.00,,,0.00,98.0,meteohub,2013-06-16 13:17:00,
2013-06-16 09:22:00,71.6,60.1,30.04,ESE,111,0.0,3.0,67,0.00,,,0.00,98.0,meteohub,2013-06-16 13:22:00,
2013-06-16 09:27:00,72.0,60.8,30.04,ESE,109,0.0,2.0,68,0.00,,,0.00,98.0,meteohub,2013-06-16 13:27:00,
2013-06-16 09:32:00,72.0,60.4,30.04,SE,135,0.0,2.0,67,0.00,,,0.00,100.0,meteohub,2013-06-16 13:32:00,
2013-06-16 09:37:00,72.3,62.1,30.04,East,92,1.0,2.0,70,0.00,,,0.00,104.0,meteohub,2013-06-16 13:37:00,
2013-06-16 09:42:00,72.3,60.8,30.04,ESE,102,0.0,4.0,67,0.00,,,0.00,109.0,meteohub,2013-06-16 13:42:00,
2013-06-16 09:47:00,72.3,60.8,30.04,East,84,0.0,4.0,67,0.00,,,0.00,114.0,meteohub,2013-06-16 13:47:00,
2013-06-16 09:52:00,72.3,60.3,30.04,North,5,0.0,4.0,66,0.00,,,0.00,121.0,meteohub,2013-06-16 13:52:00,
2013-06-16 09:57:00,72.3,61.2,30.04,ESE,111,2.0,4.0,68,0.00,,,0.00,116.0,meteohub,2013-06-16 13:57:00,
2013-06-16 10:02:00,72.7,61.5,30.04,East,98,0.0,4.0,68,0.00,,,0.00,269.0,meteohub,2013-06-16 14:02:00,
2013-06-16 10:07:00,73.2,62.8,30.03,East,100,0.0,4.0,70,0.00,,,0.00,691.0,meteohub,2013-06-16 14:07:00,
2013-06-16 10:12:00,74.1,63.0,30.04,ESE,103,0.0,2.0,68,0.00,,,0.00,747.0,meteohub,2013-06-16 14:12:00,
2013-06-16 10:17:00,74.7,61.2,30.03,East,84,0.0,2.0,63,0.00,,,0.00,745.0,meteohub,2013-06-16 14:17:00,
2013-06-16 10:22:00,74.5,62.8,30.03,ENE,62,0.0,3.0,67,0.00,,,0.00,512.0,meteohub,2013-06-16 14:22:00,
2013-06-16 10:27:00,74.5,62.4,30.03,NNE,22,0.0,3.0,66,0.00,,,0.00,756.0,meteohub,2013-06-16 14:27:00,
2013-06-16 10:32:00,74.8,62.2,30.03,SSE,153,0.0,4.0,65,0.00,,,0.00,543.0,meteohub,2013-06-16 14:32:00,
2013-06-16 10:37:00,75.4,64.0,30.03,SSE,153,0.0,4.0,68,0.00,,,0.00,798.0,meteohub,2013-06-16 14:37:00,
2013-06-16 10:43:00,75.9,63.7,30.03,ESE,123,1.0,4.0,66,0.00,,,0.00,737.0,meteohub,2013-06-16 14:43:00,
2013-06-16 10:49:00,75.9,62.8,30.03,North,5,2.0,4.0,64,0.00,,,0.00,497.0,meteohub,2013-06-16 14:49:00,
2013-06-16 10:55:00,75.7,62.2,30.03,NNE,25,1.0,4.0,63,0.00,,,0.00,816.0,meteohub,2013-06-16 14:55:00,
2013-06-16 11:01:00,75.9,63.3,30.03,South,174,0.0,4.0,65,0.00,,,0.00,770.0,meteohub,2013-06-16 15:01:00,
2013-06-16 11:07:00,76.5,63.3,30.02,ENE,59,0.0,4.0,64,0.00,,,0.00,798.0,meteohub,2013-06-16 15:07:00,
2013-06-16 11:12:00,77.0,63.9,30.02,East,96,0.0,4.0,64,0.00,,,0.00,823.0,meteohub,2013-06-16 15:12:00,
2013-06-16 11:17:00,77.2,63.7,30.02,North,0,2.0,4.0,63,0.00,,,0.00,814.0,meteohub,2013-06-16 15:17:00,
2013-06-16 11:22:00,77.0,63.5,30.02,NNE,14,2.0,4.0,63,0.00,,,0.00,842.0,meteohub,2013-06-16 15:22:00,
2013-06-16 11:27:00,76.6,63.1,30.02,North,5,0.0,4.0,63,0.00,,,0.00,842.0,meteohub,2013-06-16 15:27:00,
2013-06-16 11:32:00,76.8,63.3,30.02,East,98,0.0,4.0,63,0.00,,,0.00,860.0,meteohub,2013-06-16 15:32:00,
2013-06-16 11:37:00,77.4,63.3,30.02,NNE,25,1.0,4.0,62,0.00,,,0.00,867.0,meteohub,2013-06-16 15:37:00,
2013-06-16 11:42:00,77.9,63.9,30.02,ESE,108,1.0,4.0,62,0.00,,,0.00,875.0,meteohub,2013-06-16 15:42:00,
2013-06-16 11:47:00,77.7,63.1,30.02,ESE,115,0.0,4.0,61,0.00,,,0.00,879.0,meteohub,2013-06-16 15:47:00,
2013-06-16 11:52:00,78.1,63.5,30.02,South,181,2.0,4.0,61,0.00,,,0.00,893.0,meteohub,2013-06-16 15:52:00,
2013-06-16 11:57:00,78.1,62.6,30.02,ENE,76,0.0,4.0,59,0.00,,,0.00,904.0,meteohub,2013-06-16 15:57:00,
2013-06-16 12:04:00,78.6,64.9,30.02,SSE,163,4.0,4.0,63,0.00,,,0.00,911.0,meteohub,2013-06-16 16:04:00,
2013-06-16 12:10:00,78.3,64.2,30.01,SE,146,1.0,6.0,62,0.00,,,0.00,916.0,meteohub,2013-06-16 16:10:00,
2013-06-16 12:16:00,78.3,63.7,30.01,East,92,1.0,6.0,61,0.00,,,0.00,928.0,meteohub,2013-06-16 16:16:00,
2013-06-16 12:22:00,78.3,63.3,30.01,ESE,107,0.0,5.0,60,0.00,,,0.00,935.0,meteohub,2013-06-16 16:22:00,
2013-06-16 12:27:00,78.4,63.3,30.01,SE,142,4.0,5.0,60,0.00,,,0.00,939.0,meteohub,2013-06-16 16:27:00,
2013-06-16 12:32:00,78.6,64.0,30.01,East,85,1.0,5.0,61,0.00,,,0.00,944.0,meteohub,2013-06-16 16:32:00,
2013-06-16 12:37:00,78.8,65.1,30.00,ESE,115,2.0,4.0,63,0.00,,,0.00,947.0,meteohub,2013-06-16 16:37:00,
2013-06-16 12:42:00,79.0,65.3,30.01,SE,134,1.0,5.0,63,0.00,,,0.00,956.0,meteohub,2013-06-16 16:42:00,
2013-06-16 12:47:00,79.2,64.6,30.01,NNE,30,0.0,5.0,61,0.00,,,0.00,956.0,meteohub,2013-06-16 16:47:00,
2013-06-16 12:52:00,79.5,64.4,30.00,South,179,0.0,5.0,60,0.00,,,0.00,960.0,meteohub,2013-06-16 16:52:00,
2013-06-16 12:57:00,79.9,65.7,30.00,SSE,166,1.0,4.0,62,0.00,,,0.00,967.0,meteohub,2013-06-16 16:57:00,
2013-06-16 13:02:00,79.5,64.9,30.00,SSE,150,1.0,5.0,61,0.00,,,0.00,970.0,meteohub,2013-06-16 17:02:00,
2013-06-16 13:07:00,80.1,65.8,30.00,ESE,107,0.0,5.0,62,0.00,,,0.00,976.0,meteohub,2013-06-16 17:07:00,
2013-06-16 13:12:00,79.9,64.8,30.00,East,85,2.0,5.0,60,0.00,,,0.00,969.0,meteohub,2013-06-16 17:12:00,
2013-06-16 13:17:00,79.5,63.9,30.00,SSE,154,0.0,4.0,59,0.00,,,0.00,970.0,meteohub,2013-06-16 17:17:00,
2013-06-16 13:22:00,79.5,65.3,29.99,SE,142,4.0,4.0,62,0.00,,,0.00,976.0,meteohub,2013-06-16 17:22:00,
2013-06-16 13:27:00,80.1,64.4,29.99,South,176,1.0,4.0,59,0.00,,,0.00,976.0,meteohub,2013-06-16 17:27:00,
2013-06-16 13:32:00,80.2,65.5,29.99,SSW,198,1.0,4.0,61,0.00,,,0.00,976.0,meteohub,2013-06-16 17:32:00,
2013-06-16 13:37:00,80.6,65.8,29.99,SSE,153,0.0,4.0,61,0.00,,,0.00,976.0,meteohub,2013-06-16 17:37:00,
2013-06-16 13:42:00,80.8,65.1,29.99,East,81,0.0,4.0,59,0.00,,,0.00,979.0,meteohub,2013-06-16 17:42:00,
2013-06-16 13:47:00,81.0,63.9,29.99,ESE,112,0.0,2.0,56,0.00,,,0.00,981.0,meteohub,2013-06-16 17:47:00,
2013-06-16 13:52:00,81.3,64.6,29.99,NE,42,0.0,2.0,57,0.00,,,0.00,1000.0,meteohub,2013-06-16 17:52:00,
2013-06-16 13:57:00,81.7,65.5,29.98,East,101,1.0,2.0,58,0.00,,,0.00,979.0,meteohub,2013-06-16 17:57:00,
2013-06-16 14:02:00,81.3,65.7,29.98,ESE,108,0.0,4.0,59,0.00,,,0.00,976.0,meteohub,2013-06-16 18:02:00,
2013-06-16 14:07:00,81.1,64.9,29.98,East,82,0.0,4.0,58,0.00,,,0.00,984.0,meteohub,2013-06-16 18:07:00,
2013-06-16 14:12:00,81.1,64.4,29.98,East,96,0.0,4.0,57,0.00,,,0.00,983.0,meteohub,2013-06-16 18:12:00,
2013-06-16 14:17:00,81.3,66.0,29.98,East,92,1.0,4.0,60,0.00,,,0.00,988.0,meteohub,2013-06-16 18:17:00,
2013-06-16 14:22:00,81.5,66.2,29.97,SSE,150,0.0,4.0,60,0.00,,,0.00,1072.0,meteohub,2013-06-16 18:22:00,
2013-06-16 14:27:00,81.7,64.4,29.97,South,171,2.0,4.0,56,0.00,,,0.00,972.0,meteohub,2013-06-16 18:27:00,
2013-06-16 14:32:00,81.0,64.2,29.97,ESE,109,0.0,4.0,57,0.00,,,0.00,979.0,meteohub,2013-06-16 18:32:00,
2013-06-16 14:37:00,80.8,65.1,29.97,East,96,1.0,4.0,59,0.00,,,0.00,990.0,meteohub,2013-06-16 18:37:00,
2013-06-16 14:42:00,80.6,66.4,29.97,ESE,123,1.0,4.0,62,0.00,,,0.00,983.0,meteohub,2013-06-16 18:42:00,
2013-06-16 14:47:00,81.0,66.2,29.97,East,101,1.0,4.0,61,0.00,,,0.00,956.0,meteohub,2013-06-16 18:47:00,
2013-06-16 14:52:00,81.1,65.5,29.97,East,100,0.0,2.0,59,0.00,,,0.00,930.0,meteohub,2013-06-16 18:52:00,
2013-06-16 14:57:00,81.3,65.7,29.97,South,173,1.0,4.0,59,0.00,,,0.00,253.0,meteohub,2013-06-16 18:57:00,
2013-06-16 15:02:00,81.1,66.4,29.97,SSE,149,1.0,4.0,61,0.00,,,0.00,930.0,meteohub,2013-06-16 19:02:00,
2013-06-16 15:07:00,81.1,66.0,29.96,ESE,110,1.0,4.0,60,0.00,,,0.00,928.0,meteohub,2013-06-16 19:07:00,
2013-06-16 15:12:00,81.0,65.3,29.96,SSE,160,4.0,4.0,59,0.00,,,0.00,835.0,meteohub,2013-06-16 19:12:00,
2013-06-16 15:17:00,80.8,65.1,29.96,ESE,119,0.0,4.0,59,0.00,,,0.00,902.0,meteohub,2013-06-16 19:17:00,
2013-06-16 15:22:00,80.8,66.0,29.96,ESE,108,1.0,4.0,61,0.00,,,0.00,861.0,meteohub,2013-06-16 19:22:00,
2013-06-16 15:27:00,80.6,65.8,29.96,East,100,1.0,4.0,61,0.00,,,0.00,861.0,meteohub,2013-06-16 19:27:00,
2013-06-16 15:32:00,80.4,65.7,29.96,SSE,166,1.0,4.0,61,0.00,,,0.00,791.0,meteohub,2013-06-16 19:32:00,
2013-06-16 15:37:00,80.2,66.0,29.96,SSE,159,0.0,4.0,62,0.00,,,0.00,761.0,meteohub,2013-06-16 19:37:00,
2013-06-16 15:42:00,80.4,64.2,29.96,NNE,14,0.0,4.0,58,0.00,,,0.00,796.0,meteohub,2013-06-16 19:42:00,
2013-06-16 15:47:00,80.8,64.6,29.96,ESE,116,0.0,4.0,58,0.00,,,0.00,819.0,meteohub,2013-06-16 19:47:00,
2013-06-16 15:52:00,80.8,64.6,29.96,East,84,0.0,2.0,58,0.00,,,0.00,828.0,meteohub,2013-06-16 19:52:00,
2013-06-16 15:57:00,80.6,64.4,29.95,South,169,0.0,2.0,58,0.00,,,0.00,853.0,meteohub,2013-06-16 19:57:00,
2013-06-16 16:02:00,80.6,65.8,29.95,ESE,107,1.0,4.0,61,0.00,,,0.00,893.0,meteohub,2013-06-16 20:02:00,
2013-06-16 16:07:00,80.1,64.9,29.95,SSE,157,1.0,4.0,60,0.00,,,0.00,886.0,meteohub,2013-06-16 20:07:00,
2013-06-16 16:12:00,79.5,65.3,29.95,ESE,107,0.0,2.0,62,0.00,,,0.00,751.0,meteohub,2013-06-16 20:12:00,
2013-06-16 16:17:00,79.0,64.8,29.95,South,185,1.0,2.0,62,0.00,,,0.00,842.0,meteohub,2013-06-16 20:17:00,
2013-06-16 16:22:00,79.0,63.9,29.95,ENE,78,1.0,4.0,60,0.00,,,0.00,758.0,meteohub,2013-06-16 20:22:00,
2013-06-16 16:27:00,79.2,65.8,29.95,SSE,159,1.0,4.0,64,0.00,,,0.00,784.0,meteohub,2013-06-16 20:27:00,
2013-06-16 16:32:00,79.3,65.1,29.94,South,175,0.0,4.0,62,0.00,,,0.00,752.0,meteohub,2013-06-16 20:32:00,
2013-06-16 16:37:00,79.3,65.1,29.95,SSE,157,1.0,4.0,62,0.00,,,0.00,722.0,meteohub,2013-06-16 20:37:00,
2013-06-16 16:42:00,79.2,65.5,29.95,SSE,148,1.0,4.0,63,0.00,,,0.00,738.0,meteohub,2013-06-16 20:42:00,
2013-06-16 16:47:00,79.2,64.9,29.95,ESE,107,0.0,4.0,62,0.00,,,0.00,299.0,meteohub,2013-06-16 20:47:00,
2013-06-16 16:52:00,78.8,65.7,29.95,SE,139,0.0,4.0,64,0.00,,,0.00,684.0,meteohub,2013-06-16 20:52:00,
2013-06-16 16:57:00,78.6,64.0,29.95,SE,136,1.0,2.0,61,0.00,,,0.00,671.0,meteohub,2013-06-16 20:57:00,
2013-06-16 17:02:00,78.4,63.9,29.94,South,186,0.0,2.0,61,0.00,,,0.00,663.0,meteohub,2013-06-16 21:02:00,
2013-06-16 17:07:00,78.3,65.1,29.95,SE,136,0.0,2.0,64,0.00,,,0.00,209.0,meteohub,2013-06-16 21:07:00,
2013-06-16 17:12:00,77.7,64.0,29.95,East,90,0.0,2.0,63,0.00,,,0.00,353.0,meteohub,2013-06-16 21:12:00,
2013-06-16 17:17:00,77.2,63.7,29.95,ESE,109,0.0,2.0,63,0.00,,,0.00,160.0,meteohub,2013-06-16 21:17:00,
2013-06-16 17:22:00,76.6,63.5,29.95,South,188,0.0,2.0,64,0.00,,,0.00,670.0,meteohub,2013-06-16 21:22:00,
2013-06-16 17:27:00,77.0,64.8,29.95,SE,142,0.0,2.0,66,0.00,,,0.00,612.0,meteohub,2013-06-16 21:27:00,
2013-06-16 17:32:00,77.5,64.4,29.95,East,79,0.0,2.0,64,0.00,,,0.00,571.0,meteohub,2013-06-16 21:32:00,
2013-06-16 17:37:00,77.7,64.0,29.95,ESE,113,0.0,2.0,63,0.00,,,0.00,515.0,meteohub,2013-06-16 21:37:00,
2013-06-16 17:42:00,77.9,64.8,29.95,ESE,115,0.0,2.0,64,0.00,,,0.00,492.0,meteohub,2013-06-16 21:42:00,
2013-06-16 17:47:00,77.7,64.6,29.94,ESE,115,0.0,2.0,64,0.00,,,0.00,485.0,meteohub,2013-06-16 21:47:00,
2013-06-16 17:52:00,77.7,64.6,29.94,ENE,76,0.0,2.0,64,0.00,,,0.00,468.0,meteohub,2013-06-16 21:52:00,
2013-06-16 17:57:00,77.4,64.2,29.94,East,96,0.0,1.0,64,0.00,,,0.00,443.0,meteohub,2013-06-16 21:57:00,
2013-06-16 18:02:00,77.2,64.0,29.94,SE,126,0.0,1.0,64,0.00,,,0.00,425.0,meteohub,2013-06-16 22:02:00,
2013-06-16 18:07:00,76.8,64.2,29.94,SSE,148,0.0,2.0,65,0.00,,,0.00,408.0,meteohub,2013-06-16 22:07:00,
2013-06-16 18:12:00,76.6,64.0,29.94,SSE,150,0.0,2.0,65,0.00,,,0.00,376.0,meteohub,2013-06-16 22:12:00,
2013-06-16 18:17:00,76.3,64.0,29.94,SE,144,1.0,2.0,66,0.00,,,0.00,360.0,meteohub,2013-06-16 22:17:00,
2013-06-16 18:22:00,75.9,63.7,29.94,SE,144,0.0,2.0,66,0.00,,,0.00,306.0,meteohub,2013-06-16 22:22:00,
2013-06-16 18:27:00,75.7,64.0,29.94,SE,144,0.0,2.0,67,0.00,,,0.00,327.0,meteohub,2013-06-16 22:27:00,
2013-06-16 18:32:00,75.7,64.0,29.93,SE,126,0.0,2.0,67,0.00,,,0.00,183.0,meteohub,2013-06-16 22:32:00,
2013-06-16 18:37:00,75.4,64.0,29.93,SE,126,0.0,2.0,68,0.00,,,0.00,123.0,meteohub,2013-06-16 22:37:00,
2013-06-16 18:42:00,75.0,63.7,29.93,SE,126,0.0,2.0,68,0.00,,,0.00,283.0,meteohub,2013-06-16 22:42:00,
2013-06-16 18:47:00,74.8,64.0,29.93,SE,126,0.0,2.0,69,0.00,,,0.00,76.0,meteohub,2013-06-16 22:47:00,
2013-06-16 18:52:00,74.5,64.0,29.93,SE,126,0.0,1.0,70,0.00,,,0.00,46.0,meteohub,2013-06-16 22:52:00,
2013-06-16 18:57:00,74.1,63.7,29.94,SE,126,0.0,0.0,70,0.00,,,0.00,47.0,meteohub,2013-06-16 22:57:00,
2013-06-16 19:02:00,73.8,63.0,29.94,NNE,32,0.0,0.0,69,0.00,,,0.00,40.0,meteohub,2013-06-16 23:02:00,
2013-06-16 19:07:00,73.4,63.0,29.94,NNE,32,0.0,2.0,70,0.00,,,0.00,33.0,meteohub,2013-06-16 23:07:00,
2013-06-16 19:12:00,73.0,62.2,29.93,South,185,0.0,2.0,69,0.00,,,0.00,30.0,meteohub,2013-06-16 23:12:00,
2013-06-16 19:17:00,72.9,62.4,29.93,South,185,0.0,2.0,70,0.00,,,0.00,40.0,meteohub,2013-06-16 23:17:00,
2013-06-16 19:22:00,72.5,62.2,29.93,South,185,0.0,1.0,70,0.00,,,0.00,40.0,meteohub,2013-06-16 23:22:00,
2013-06-16 19:27:00,72.3,62.8,29.93,South,185,0.0,1.0,72,0.00,,,0.00,44.0,meteohub,2013-06-16 23:27:00,
2013-06-16 19:32:00,72.1,62.2,29.93,South,184,0.0,1.0,71,0.00,,,0.00,42.0,meteohub,2013-06-16 23:32:00,
2013-06-16 19:37:00,72.0,62.4,29.94,South,184,0.0,1.0,72,0.00,,,0.00,42.0,meteohub,2013-06-16 23:37:00,
2013-06-16 19:42:00,72.0,62.4,29.94,South,187,0.0,2.0,72,0.00,,,0.00,40.0,meteohub,2013-06-16 23:42:00,
2013-06-16 19:47:00,71.8,62.6,29.93,South,187,0.0,2.0,73,0.00,,,0.00,37.0,meteohub,2013-06-16 23:47:00,
2013-06-16 19:52:00,71.4,62.2,29.93,NNW,337,0.0,2.0,73,0.00,,,0.00,30.0,meteohub,2013-06-16 23:52:00,
2013-06-16 19:57:00,71.4,62.2,29.93,NNW,337,0.0,2.0,73,0.00,,,0.00,25.0,meteohub,2013-06-16 23:57:00,
2013-06-16 20:02:00,71.2,62.6,29.93,NNW,340,0.0,2.0,74,0.00,,,0.00,23.0,meteohub,2013-06-17 00:02:00,
2013-06-16 20:07:00,71.2,62.6,29.93,NNW,340,0.0,2.0,74,0.00,,,0.00,21.0,meteohub,2013-06-17 00:07:00,
2013-06-16 20:12:00,71.1,62.4,29.93,NNW,340,0.0,2.0,74,0.00,,,0.00,18.0,meteohub,2013-06-17 00:12:00,
2013-06-16 20:17:00,71.1,62.4,29.93,North,355,0.0,2.0,74,0.00,,,0.00,16.0,meteohub,2013-06-17 00:17:00,
2013-06-16 20:22:00,71.2,62.6,29.93,North,355,0.0,2.0,74,0.00,,,0.00,12.0,meteohub,2013-06-17 00:22:00,
2013-06-16 20:27:00,71.2,62.6,29.94,NNW,344,0.0,2.0,74,0.00,,,0.00,9.0,meteohub,2013-06-17 00:27:00,
2013-06-16 20:32:00,71.2,62.6,29.93,NNW,344,0.0,2.0,74,0.00,,,0.00,7.0,meteohub,2013-06-17 00:32:00,
2013-06-16 20:37:00,71.1,62.4,29.94,NNE,19,0.0,2.0,74,0.00,,,0.00,0.0,meteohub,2013-06-17 00:37:00,
2013-06-16 20:42:00,71.1,62.4,29.94,NNE,17,0.0,3.0,74,0.00,,,0.00,0.0,meteohub,2013-06-17 00:42:00,
2013-06-16 20:47:00,71.1,62.8,29.94,NNE,14,2.0,3.0,75,0.00,,,0.00,0.0,meteohub,2013-06-17 00:47:00,
2013-06-16 20:52:00,70.9,62.6,29.94,NNE,14,0.0,3.0,75,0.00,,,0.00,0.0,meteohub,2013-06-17 00:52:00,
2013-06-16 20:57:00,70.9,63.0,29.94,NNE,14,0.0,2.0,76,0.00,,,0.00,0.0,meteohub,2013-06-17 00:57:00,
2013-06-16 21:02:00,70.5,62.6,29.94,NNE,19,0.0,2.0,76,0.00,,,0.00,0.0,meteohub,2013-06-17 01:02:00,
2013-06-16 21:07:00,70.5,62.6,29.94,SE,134,0.0,1.0,76,0.00,,,0.00,0.0,meteohub,2013-06-17 01:07:00,
2013-06-16 21:12:00,70.5,62.6,29.94,ENE,65,0.0,4.0,76,0.00,,,0.00,0.0,meteohub,2013-06-17 01:12:00,
2013-06-16 21:17:00,70.5,62.6,29.94,ENE,63,0.0,4.0,76,0.00,,,0.00,0.0,meteohub,2013-06-17 01:17:00,
2013-06-16 21:22:00,70.7,62.8,29.94,South,182,0.0,3.0,76,0.00,,,0.00,0.0,meteohub,2013-06-17 01:22:00,
2013-06-16 21:27:00,70.9,62.6,29.94,SE,132,0.0,3.0,75,0.00,,,0.00,0.0,meteohub,2013-06-17 01:27:00,
2013-06-16 21:32:00,71.1,62.8,29.94,SW,215,0.0,4.0,75,0.00,,,0.00,0.0,meteohub,2013-06-17 01:32:00,
2013-06-16 21:37:00,71.1,62.8,29.94,NW,306,0.0,4.0,75,0.00,,,0.00,0.0,meteohub,2013-06-17 01:37:00,
2013-06-16 21:42:00,71.2,63.0,29.94,SE,145,0.0,4.0,75,0.00,,,0.00,0.0,meteohub,2013-06-17 01:42:00,
2013-06-16 21:47:00,71.2,63.0,29.94,North,355,0.0,3.0,75,0.00,,,0.00,0.0,meteohub,2013-06-17 01:47:00,
2013-06-16 21:52:00,71.2,63.0,29.94,North,9,3.0,5.0,75,0.00,,,0.00,0.0,meteohub,2013-06-17 01:52:00,
2013-06-16 21:57:00,71.4,63.1,29.95,WNW,282,0.0,5.0,75,0.00,,,0.00,0.0,meteohub,2013-06-17 01:57:00,
2013-06-16 22:02:00,71.4,63.1,29.95,NNW,347,1.0,10.0,75,0.00,,,0.00,0.0,meteohub,2013-06-17 02:02:00,
2013-06-16 22:07:00,71.4,63.1,29.95,North,11,1.0,10.0,75,0.00,,,0.00,0.0,meteohub,2013-06-17 02:07:00,
2013-06-16 22:12:00,71.2,63.3,29.95,South,185,0.0,6.0,76,0.00,,,0.00,0.0,meteohub,2013-06-17 02:12:00,
2013-06-16 22:17:00,71.1,63.1,29.96,SSW,201,0.0,4.0,76,0.00,,,0.00,0.0,meteohub,2013-06-17 02:17:00,
2013-06-16 22:22:00,70.9,63.3,29.96,NNE,13,0.0,2.0,77,0.00,,,0.00,0.0,meteohub,2013-06-17 02:22:00,
2013-06-16 22:27:00,70.9,63.7,29.96,NNE,15,0.0,1.0,78,0.00,,,0.00,0.0,meteohub,2013-06-17 02:27:00,
2013-06-16 22:32:00,70.7,63.5,29.96,South,182,0.0,1.0,78,0.00,,,0.00,0.0,meteohub,2013-06-17 02:32:00,
2013-06-16 22:37:00,70.7,63.5,29.96,SSE,155,0.0,2.0,78,0.00,,,0.00,0.0,meteohub,2013-06-17 02:37:00,
2013-06-16 22:42:00,70.7,63.5,29.96,ENE,59,1.0,2.0,78,0.00,,,0.00,0.0,meteohub,2013-06-17 02:42:00,
2013-06-16 22:47:00,70.7,63.5,29.96,SE,136,0.0,6.0,78,0.00,,,0.00,0.0,meteohub,2013-06-17 02:47:00,
2013-06-16 22:52:00,70.9,63.7,29.96,SE,134,0.0,6.0,78,0.00,,,0.00,0.0,meteohub,2013-06-17 02:52:00,
2013-06-16 22:57:00,70.7,63.5,29.95,NNE,15,2.0,6.0,78,0.00,,,0.00,0.0,meteohub,2013-06-17 02:57:00,
2013-06-16 23:02:00,70.7,63.5,29.96,North,0,4.0,4.0,78,0.00,,,0.00,0.0,meteohub,2013-06-17 03:02:00,
2013-06-16 23:07:00,70.7,63.5,29.95,SSE,153,0.0,4.0,78,0.00,,,0.00,0.0,meteohub,2013-06-17 03:07:00,
2013-06-16 23:12:00,70.7,63.5,29.95,NE,39,0.0,4.0,78,0.00,,,0.00,0.0,meteohub,2013-06-17 03:12:00,
2013-06-16 23:17:00,70.7,63.5,29.95,North,355,0.0,4.0,78,0.00,,,0.00,0.0,meteohub,2013-06-17 03:17:00,
2013-06-16 23:22:00,70.7,63.5,29.95,South,179,4.0,4.0,78,0.00,,,0.00,0.0,meteohub,2013-06-17 03:22:00,
2013-06-16 23:27:00,70.7,63.5,29.95,SSE,153,0.0,2.0,78,0.00,,,0.00,0.0,meteohub,2013-06-17 03:27:00,
2013-06-16 23:32:00,70.7,63.5,29.95,SSW,192,0.0,21.0,78,0.00,,,0.00,0.0,meteohub,2013-06-17 03:32:00,
2013-06-16 23:37:00,70.7,63.9,29.95,South,176,0.0,21.0,79,0.00,,,0.00,0.0,meteohub,2013-06-17 03:37:00,
2013-06-16 23:42:00,70.5,63.7,29.95,ESE,117,0.0,5.0,79,0.00,,,0.00,0.0,meteohub,2013-06-17 03:42:00,
2013-06-16 23:47:00,70.5,64.0,29.94,South,173,0.0,4.0,80,0.00,,,0.00,0.0,meteohub,2013-06-17 03:47:00,
2013-06-16 23:52:00,70.5,64.0,29.95,East,84,0.0,4.0,80,0.00,,,0.00,0.0,meteohub,2013-06-17 03:52:00,
2013-06-16 23:57:00,70.5,64.0,29.95,NE,41,1.0,4.0,80,0.00,,,0.00,0.0,meteohub,2013-06-17 03:57:00,